Oelwein, IA

5:28 AM CDT on May 23, 2017 (GMT -0500)
Oelwein Municipal

Weather History for KOLZ - June, 2014

Change the Weather History Date:

Monday, June 9, 2014

  Actual Average Record
Temperature  
Mean Temperature 65 °F -  
Max Temperature 75 °F 77 °F 95 °F (2015)
Min Temperature 55 °F 55 °F 40 °F (1977)
Growing Degree Days 15 (Base 50)    
Moisture  
Dew Point 22 °F    
Average Humidity 51    
Maximum Humidity 100    
Minimum Humidity 4    
Precipitation  
Precipitation 0.00 in - - ()
Sea Level Pressure  
Sea Level Pressure 29.99 in    
Wind  
Wind Speed 7 mph (ENE)    
Max Wind Speed 14 mph    
Max Gust Speed 18 mph    
Visibility 10 miles    
Events      
Averages and records for this station are not official NWS values.
T = Trace of Precipitation, MM = Missing Value Source: NWS Daily Summary

Daily Weather History Graph

Daily Weather History Graph

Search for Another Location

Airport or City:

Trip Planner

Search our weather history database for the weather conditions in past years. The results will help you decide how hot, cold, wet, or windy it might be!

Date:

Astronomy

Jun. 09, 2014 Rise Set
Actual Time 5:29 AM CDT 8:44 PM CDT
Civil Twilight 4:55 AM CDT 9:19 PM CDT
Nautical Twilight 4:10 AM CDT 10:04 PM CDT
Astronomical Twilight 3:15 AM CDT 10:59 PM CDT
Moon 5:01 PM CDT (6/9) 3:02 AM CDT (6/9)
Length of Visible Light 16h 24m
Length of Day
15h 14m
Waxing Gibbous, 85% of the Moon is Illuminated
Jun 9
Waxing Gibbous
Jun 12
Full
Jun 19
Last Quarter
Jun 27
New
Jul 5
First Quarter

Hourly Weather History & Observations

Time (CDT) Temp. Dew Point Humidity Pressure Visibility Wind Dir Wind Speed Gust Speed Precip Events Conditions
12:15 AM 59.0 °F 59.0 °F 100% 30.05 in 10.0 mi ENE 4.6 mph - N/A   Partly Cloudy
12:35 AM 57.2 °F 57.2 °F 100% 30.04 in 10.0 mi ENE 4.6 mph - N/A   Clear
12:55 AM 57.2 °F 57.2 °F 100% 30.03 in 10.0 mi East 5.8 mph - N/A   Clear
1:15 AM 55.4 °F 55.4 °F 100% 30.02 in 10.0 mi ENE 4.6 mph - N/A   Partly Cloudy
1:35 AM 55.4 °F 55.4 °F 100% 30.02 in 10.0 mi Calm Calm - N/A   Unknown
1:55 AM 57.2 °F 57.2 °F 100% 30.02 in 10.0 mi NE 4.6 mph - N/A   Unknown
2:15 AM 57.2 °F 57.2 °F 100% 30.03 in 10.0 mi East 4.6 mph - N/A   Clear
2:35 AM 57.2 °F 57.2 °F 100% 30.02 in 10.0 mi ENE 4.6 mph - N/A   Mostly Cloudy
2:55 AM 55.4 °F 55.4 °F 100% 30.03 in 9.0 mi Calm Calm - N/A   Overcast
3:15 AM 57.2 °F 57.2 °F 100% 30.03 in 10.0 mi Calm Calm - N/A   Overcast
3:35 AM 57.2 °F 57.2 °F 100% 30.03 in 9.0 mi East 5.8 mph - N/A   Overcast
3:55 AM 59.0 °F 59.0 °F 100% 30.02 in 10.0 mi ESE 12.7 mph - N/A   Mostly Cloudy
4:15 AM 59.0 °F 59.0 °F 100% 30.02 in 10.0 mi SE 11.5 mph - N/A   Partly Cloudy
4:35 AM 59.0 °F 57.2 °F 94% 30.02 in 10.0 mi SE 10.4 mph - N/A   Scattered Clouds
4:55 AM 57.2 °F 57.2 °F 100% 30.02 in 10.0 mi SE 9.2 mph - N/A   Mostly Cloudy
5:15 AM 57.2 °F 55.4 °F 94% 30.02 in 10.0 mi SSE 9.2 mph - N/A   Partly Cloudy
5:35 AM 55.4 °F 55.4 °F 100% 30.02 in 10.0 mi SE 5.8 mph - N/A   Clear
5:55 AM 55.4 °F 55.4 °F 100% 30.02 in 10.0 mi SE 4.6 mph - N/A   Clear
6:15 AM 55.4 °F 55.4 °F 100% 30.03 in 10.0 mi East 4.6 mph - N/A   Clear
6:35 AM 55.4 °F 55.4 °F 100% 30.02 in 10.0 mi ESE 5.8 mph - N/A   Clear
6:55 AM 57.2 °F 57.2 °F 100% 30.02 in 10.0 mi ESE 6.9 mph - N/A   Mostly Cloudy
7:15 AM 57.2 °F 55.4 °F 94% 30.02 in 10.0 mi ESE 6.9 mph - N/A   Overcast
7:35 AM 59.0 °F 53.6 °F 82% 30.02 in 10.0 mi ESE 6.9 mph - N/A   Overcast
7:55 AM 60.8 °F 51.8 °F 72% 30.02 in 10.0 mi East 6.9 mph - N/A   Overcast
8:15 AM 60.8 °F 50.0 °F 68% 30.02 in 10.0 mi East 6.9 mph - N/A   Scattered Clouds
8:35 AM 62.6 °F 46.4 °F 55% 30.02 in 10.0 mi East 8.1 mph - N/A   Partly Cloudy
8:55 AM 64.4 °F 46.4 °F 52% 30.03 in 10.0 mi East 9.2 mph - N/A   Mostly Cloudy
9:15 AM 66.2 °F 46.4 °F 49% 30.04 in 10.0 mi East 5.8 mph 12.7 mph N/A   Mostly Cloudy
9:35 AM 66.2 °F 46.4 °F 49% 30.04 in 10.0 mi East 8.1 mph - N/A   Partly Cloudy
9:55 AM 66.2 °F 46.4 °F 49% 30.03 in 10.0 mi ENE 6.9 mph - N/A   Mostly Cloudy
10:15 AM 68.0 °F 48.2 °F 49% 30.03 in 10.0 mi East 9.2 mph - N/A   Overcast
10:35 AM 69.8 °F 46.4 °F 43% 30.03 in 10.0 mi East 9.2 mph - N/A   Mostly Cloudy
10:55 AM 69.8 °F 46.4 °F 43% 30.02 in 10.0 mi East 13.8 mph - N/A   Partly Cloudy
11:35 AM 71.6 °F 42.8 °F 35% 30.02 in 10.0 mi East 5.8 mph 15.0 mph N/A   Mostly Cloudy
11:55 AM 71.6 °F 28.4 °F 20% 30.02 in 10.0 mi ENE 5.8 mph 15.0 mph N/A   Overcast
12:15 PM 71.6 °F -11.2 °F 4% 30.01 in 10.0 mi ENE 10.4 mph - N/A   Partly Cloudy
12:35 PM 73.4 °F -36.4 °F 4% 30.00 in 10.0 mi ENE 11.5 mph - N/A   Clear
12:55 PM 73.4 °F -36.4 °F 4% 30.01 in 10.0 mi NNE 8.1 mph 16.1 mph N/A   Partly Cloudy
1:15 PM 73.4 °F -34.6 °F 4% 30.00 in 10.0 mi ESE 9.2 mph - N/A   Partly Cloudy
1:35 PM 73.4 °F -36.4 °F 4% 29.98 in 10.0 mi ENE 10.4 mph 17.3 mph N/A   Clear
2:35 PM 73.4 °F -34.6 °F 4% 29.96 in 10.0 mi ENE 9.2 mph - N/A   Scattered Clouds
2:55 PM 73.4 °F -34.6 °F 4% 29.96 in 10.0 mi East 9.2 mph 18.4 mph N/A   Partly Cloudy
3:15 PM 75.2 °F -34.6 °F 4% 29.95 in 10.0 mi ENE 9.2 mph - N/A   Clear
3:35 PM 75.2 °F -34.6 °F 4% 29.95 in 10.0 mi NE 9.2 mph - N/A   Clear
4:15 PM 75.2 °F -34.6 °F 4% 29.95 in 10.0 mi ENE 6.9 mph 13.8 mph N/A   Clear
4:35 PM 75.2 °F -34.6 °F 4% 29.95 in 10.0 mi Variable 5.8 mph 12.7 mph N/A   Clear
4:55 PM 75.2 °F -34.6 °F 4% 29.95 in 10.0 mi ENE 9.2 mph - N/A   Clear
5:15 PM 73.4 °F -34.6 °F 4% 29.94 in 10.0 mi NE 9.2 mph 15.0 mph N/A   Clear
5:35 PM 73.4 °F -34.6 °F 4% 29.94 in 10.0 mi ENE 11.5 mph - N/A   Clear
5:55 PM 73.4 °F -36.4 °F 4% 29.94 in 10.0 mi NE 10.4 mph - N/A   Clear
6:15 PM 73.4 °F -36.4 °F 4% 29.94 in 10.0 mi NE 11.5 mph - N/A   Clear
6:35 PM 73.4 °F -36.4 °F 4% 29.93 in 10.0 mi ENE 11.5 mph - N/A   Clear
6:55 PM 71.6 °F -36.4 °F 4% 29.93 in 10.0 mi NE 11.5 mph - N/A   Clear
7:15 PM 71.6 °F -36.4 °F 4% 29.93 in 10.0 mi NE 10.4 mph - N/A   Clear
7:35 PM 71.6 °F -36.4 °F 4% 29.93 in 10.0 mi NE 9.2 mph - N/A   Clear
7:50 PM 69.8 °F -25.6 °F 4% 29.92 in 10.0 mi NE 10.4 mph 17.3 mph N/A   Clear
8:15 PM 69.8 °F 53.6 °F 56% 29.93 in 10.0 mi NNE 13.8 mph - N/A   Clear
8:35 PM 68.0 °F -38.2 °F 4% 29.93 in 10.0 mi NE 9.2 mph 16.1 mph N/A   Clear
8:55 PM 68.0 °F -40.0 °F 4% 29.94 in 10.0 mi NE 8.1 mph - N/A   Clear
9:15 PM 66.2 °F - N/A% 29.94 in 10.0 mi NE 5.8 mph - N/A   Clear
9:35 PM 64.4 °F 46.4 °F 52% 29.94 in 10.0 mi NE 5.8 mph - N/A   Clear
9:55 PM 62.6 °F 46.4 °F 55% 29.95 in 10.0 mi NE 6.9 mph - N/A   Clear
10:15 PM 64.4 °F 46.4 °F 52% 29.95 in 10.0 mi NNE 8.1 mph - N/A   Clear
10:35 PM 64.4 °F 46.4 °F 52% 29.95 in 10.0 mi NE 6.9 mph - N/A   Clear
10:55 PM 62.6 °F 48.2 °F 59% 29.95 in 10.0 mi NE 6.9 mph - N/A   Clear
11:15 PM 62.6 °F 48.2 °F 59% 29.94 in 10.0 mi NE 6.9 mph - N/A   Clear
11:35 PM 62.6 °F 48.2 °F 59% 29.94 in 10.0 mi NE 8.1 mph - N/A   Clear
11:55 PM 62.6 °F 48.2 °F 59% 29.94 in 10.0 mi NE 10.4 mph - N/A   Clear